Home   Weather   Londrina   Past weeks
Flag for Brazil

Past Weather in Londrina, Paraná, Brazil — Yesterday and Last 2 Weeks

Now
63 °F

Sunny.


Feels Like: 63 °F
Forecast: 87 / 60 °F
Wind: No wind

Location: Londrina Aeroporto

Current Time: Apr 19, 2019 at 7:56:38 am

Latest Report: Apr 19, 2019 at 7:00 am


Visibility: 10 mi

Pressure: 30.04 "Hg (27.94 "Hg at 615m altitude)

Humidity: 77%

Dew Point: 55 °F

Location of LondrinaLocation

Past Weather in Londrina — Graph

°F

Londrina Temperature Yesterday

Maximum temperature yesterday: 90 °F (at 2:00 pm)
Minimum temperature yesterday: 63 °F (at 7:00 am)
Average temperature yesterday: 75 °F

High & Low Weather Summary for the Past Weeks

 TemperatureHumidityPressure
High90 °F (Apr 5, 1:00 pm)100% (Apr 6, 5:00 am)30.12 "Hg (Apr 6, 5:00 am)
Low61 °F (Apr 19, 6:00 am)24% (Apr 18, 2:00 pm)29.83 "Hg (Apr 4, 4:00 pm)
Average75 °F74%30.00 "Hg
* Reported Apr 4 7:00 am — Apr 19 7:00 am, Londrina. Weather by CustomWeather, © 2019

Note: Actual official high and low records may vary slightly from our data, if they occured in-between our weather recording intervals... More about our weather records

Advertising

Londrina Weather History for the Previous 24 Hours

Scroll right to see more
 ConditionsComfort  
Time TempWeatherWind HumidityBarometerVisibility
7:00 am
Fri, Apr 19
63 °FSunny.No wind77%30.04 "Hg10 mi
6:00 am61 °FClear.No wind88%29.98 "Hg10 mi
5:00 am63 °FClear.No wind83%29.98 "Hg10 mi
4:00 am64 °FClear.No wind78%29.98 "Hg10 mi
3:00 am66 °FClear.No wind73%29.98 "Hg10 mi
2:00 am66 °FClear.No wind78%29.98 "Hg10 mi
1:00 am68 °FClear.No wind64%29.98 "Hg10 mi
12:00 am70 °FClear.No wind60%29.98 "Hg10 mi
11:00 pm
Thu, Apr 18
72 °FClear.No wind57%29.98 "Hg10 mi
10:00 pm73 °FClear.No wind57%29.98 "Hg10 mi
9:00 pm75 °FClear.No wind50%29.95 "Hg10 mi
8:00 pm77 °FClear.No wind44%29.95 "Hg10 mi
7:00 pm79 °FClear.No wind42%29.92 "Hg10 mi
6:00 pm82 °FSunny.7 mph35%29.92 "Hg10 mi
5:00 pm86 °FSunny.8 mph31%29.92 "Hg10 mi
4:00 pm88 °FSunny.9 mph27%29.92 "Hg10 mi
3:00 pm90 °FSunny.12 mph26%29.92 "Hg10 mi
2:00 pm90 °FSunny.13 mph24%29.95 "Hg10 mi
1:00 pm88 °FSunny.3 mph31%29.98 "Hg10 mi
12:00 pm84 °FSunny.3 mph43%30.01 "Hg10 mi
11:00 am79 °FSunny.No wind51%30.04 "Hg10 mi
9:00 am70 °FSunny.No wind64%30.01 "Hg10 mi
8:00 am66 °FSunny.No wind73%30.01 "Hg10 mi
7:00 am63 °FSunny.No wind77%29.98 "Hg10 mi
Weather by CustomWeather, © 2019

See weather overview